NOVA 1

Last updated on Sat Sep 05 2026 00:03:34 GMT+0000 (Coordinated Universal Time)

1 12458U 81044A 26247.30760882 .00000054 00000+0 10518-3 0 9998 2 12458 89.8390 87.4518 0016197 91.4699 82.1273 13.23308512186987
UTC large
Height (km)
Speed (km/s)
/
Latitude / Longitude
Inclination (degrees)
Orbital Period (minutes)
Azimuth
Elevation
Range (km)
Doppler Factor

Next 0 passes for location: London (51.5072 / 0.1276)

No passes found over London.
NOVA 1